Regional Weather Roundup
Issued by NWS

Home | Current Version | Previous Version | Text Only | Print | Product List | Glossary On
Versions: 1 2 3 4 5 6 7 8 9 10 11 12 13 14 15 16 17 18 19 20 21 22 23 24 25 26 27 28 29 30 31 32 33 34 35 36 37 38 39 40 41 42 43 44 45 46 47 48 49 50
000
ASUS44 KMEG 232310
RWRTN
TENNESSEE HOURLY STATE WEATHER ROUNDUP
NATIONAL WEATHER SERVICE MEMPHIS TN
500 PM CST THU FEB 23 2017

TNZ002-004-019-021-049-052-054-088>092-240000-
WEST TENNESSEE

CITY           SKY/WX    TMP DP  RH WIND       PRES   REMARKS
MEMPHIS INTL   FAIR      75  54  47 S13       29.67F
NWS MEMPHIS      N/A     77 N/A N/A MISG        N/A
JACKSON        FAIR      73  57  57 S10G21    29.69F
UNION CITY     CLEAR     72  52  49 S10       29.66S
PARIS          CLEAR     70  54  56 S13       29.70F
HUNTINGDON     CLEAR     72  55  56 S10G20    29.69S
$$

TNZ008-025-027-028-033-062-065-066-240000-
NORTH MIDDLE TENNESSEE

CITY           SKY/WX    TMP DP  RH WIND       PRES   REMARKS
NASHVILLE      MOCLDY    71  53  52 S10       29.75F
PORTLAND       CLEAR     70  54  56 S12       29.75S
CLARKSVILLE    FAIR      71  53  52 S14       29.71S
SMYRNA         FAIR      71  55  56 S9        29.76F
COOKEVILLE     PTCLDY    70  54  56 SW5       29.77S
GALLATIN       CLEAR     72  55  56 S12       29.78S
CROSSVILLE     MOCLDY    67  51  56 S8        29.83R
$$

TNZ061-075-076-078-094-096-097-240000-
SOUTH MIDDLE TENNESSEE

CITY           SKY/WX    TMP DP  RH WIND       PRES   REMARKS
FAYETTEVILLE   PTCLDY    70  55  60 S7        29.78F
TULLAHOMA      PTCLDY    68  54  60 S7        29.80S
WINCHESTER     MOCLDY    72  55  56 S8        29.79F
MCMINNVILLE    CLEAR     73  55  53 S7        29.79S
COLUMBIA       PTCLDY    72  59  64 S9        29.73F
SHELBYVILLE    CLEAR     72  57  60 S8        29.79R
$$

TNZ017-018-042-046-047-240000-
NORTHEAST TENNESSEE

CITY           SKY/WX    TMP DP  RH WIND       PRES   REMARKS
TRI CITIES     FAIR      69  52  54 CALM      29.84R
ELIZABETHTON   CLOUDY    70  52  52 SE6       29.84R
$$

TNZ012-013-036-069-073-074-240000-
CENTRAL EAST TENNESSEE

CITY           SKY/WX    TMP DP  RH WIND       PRES   REMARKS
KNOXVILLE      MOCLDY    72  53  51 CALM      29.81R
OAK RIDGE      FAIR      71  53  52 CALM      29.82R
GATLINBURG     CLOUDY    70  52  52 VRB3      29.81R
MORRISTOWN     CLOUDY    68  52  56 N5        29.82R
JACKSBORO      CLEAR     68  54  60 CALM      29.84R
$$

TNZ083-085-099-240000-
SOUTHEAST TENNESSEE

CITY           SKY/WX    TMP DP  RH WIND       PRES   REMARKS
CHATTANOOGA    MOCLDY    74  53  48 SW8       29.80R
$$

SKY/WX REPORTED AS FAIR MEANS FEW OR NO CLOUDS BELOW
12 THOUSAND FEET.





USA.gov is the U.S. government's official web portal to all federal, state and local government web resources and services.